Date String (YYYY-MM-DD hh:mm:ss) UTC,Instrument flags,Ambient pressure (hPa),Sample flow (lpm),Bypass flow (lpm),Sample temperature (°C),Ambient temperature (°C),ASC tube jacket temperature (°C),LED temperature (°C),Box temperature (°C),Sample RH (%),Span deviation,Mass concentration (μg/m³),Mass concentration (μg/m³),Mass concentration (μg/m³)
DateTimeUTC,F1_M11,P_M11,Q1_M11,Q2_M11,T1_M11,T2_M11,T3_M11,T4_M11,T5_M11,U1_M11,ZSPAN_M11,X0_M11,X2_M11,X1_M11
2022-02-16 16:00:00,,0816.5,5.00,0.00,22.4,21.7,00.0,31.4,24.1,14.1,0000.0,0009.83,0005.04,0004.43
2022-02-16 16:01:00,,0816.5,5.00,0.00,22.4,21.7,00.0,31.4,24.1,14.2,0000.0,0009.67,0005.03,0004.43
2022-02-16 16:02:00,,0816.4,4.99,0.00,22.4,21.7,00.0,31.4,24.1,14.2,0000.0,0009.51,0005.00,0004.42
2022-02-16 16:03:00,,0816.5,5.00,0.00,22.4,21.7,00.0,31.4,24.1,14.1,0000.0,0009.40,0004.98,0004.41
2022-02-16 16:04:00,,0816.5,5.01,0.00,22.4,21.6,00.0,31.4,24.1,14.1,0000.0,0009.21,0004.97,0004.39
2022-02-16 16:05:00,,0816.5,4.99,0.00,22.3,21.6,00.0,31.4,24.1,14.0,0000.0,0009.01,0004.94,0004.39
2022-02-16 16:06:00,,0816.6,4.99,0.00,22.3,21.6,00.0,31.4,24.0,14.0,0000.0,0008.77,0004.86,0004.37
2022-02-16 16:07:00,,0816.7,5.02,0.00,22.3,21.6,00.0,31.4,24.0,14.0,0000.0,0008.78,0004.82,0004.35
2022-02-16 16:08:00,,0816.7,5.00,0.00,22.3,21.5,00.0,31.4,24.0,14.0,0000.0,0008.44,0004.81,0004.32
2022-02-16 16:09:00,,0816.5,4.99,0.00,22.3,21.5,00.0,31.4,24.0,14.0,0000.0,0008.55,0004.83,0004.31
2022-02-16 16:10:00,,0816.6,5.01,0.00,22.3,21.4,00.0,31.3,24.0,14.0,0000.0,0008.66,0004.83,0004.30
2022-02-16 16:11:00,,0816.6,4.99,0.00,22.3,21.4,00.0,31.3,24.0,14.1,0000.0,0008.62,0004.84,0004.29
2022-02-16 16:12:00,,0816.8,5.01,0.00,22.2,21.4,00.0,31.3,24.0,14.1,0000.0,0008.56,0004.81,0004.29
2022-02-16 16:13:00,,0816.5,4.99,0.00,22.2,21.3,00.0,31.3,24.0,14.1,0000.0,0008.62,0004.83,0004.30
2022-02-16 16:14:00,,0816.5,5.00,0.00,22.2,21.4,00.0,31.3,24.0,14.2,0000.0,0008.58,0004.82,0004.31
2022-02-16 16:15:00,,0816.4,5.01,0.00,22.2,21.3,00.0,31.3,24.0,14.3,0000.0,0009.01,0004.81,0004.32
2022-02-16 16:16:00,,0816.5,5.00,0.00,22.2,21.3,00.0,31.3,23.9,14.3,0000.0,0009.17,0004.82,0004.32
2022-02-16 16:17:00,,0816.5,5.00,0.00,22.2,21.3,00.0,31.2,23.9,14.3,0000.0,0009.27,0004.85,0004.32
2022-02-16 16:18:00,,0816.6,5.00,0.00,22.2,21.3,00.0,31.2,23.9,14.3,0001.2,0009.11,0004.84,0004.33
2022-02-16 16:19:00,,0816.7,5.02,0.00,22.2,21.3,00.0,31.2,23.9,14.4,0000.8,0009.16,0004.88,0004.35
2022-02-16 16:20:00,,0816.4,5.00,0.00,22.1,21.2,00.0,31.2,23.9,14.4,0000.0,0009.44,0004.87,0004.37
2022-02-16 16:21:00,,0816.4,5.00,0.00,22.1,21.3,00.0,31.2,23.9,14.5,0000.5,0009.57,0004.87,0004.38
2022-02-16 16:22:00,,0816.4,4.99,0.00,22.1,21.3,00.0,31.2,23.9,14.6,0001.4,0009.62,0004.87,0004.39
2022-02-16 16:23:00,,0816.5,5.00,0.00,22.1,21.3,00.0,31.2,23.9,14.7,0002.2,0009.70,0004.89,0004.39
2022-02-16 16:24:00,,0816.4,5.01,0.00,22.1,21.3,00.0,31.2,23.9,14.6,0001.7,0009.76,0004.90,0004.40
2022-02-16 16:25:00,,0816.5,4.98,0.00,22.1,21.3,00.0,31.2,23.9,14.6,0000.3,0009.81,0004.90,0004.39
2022-02-16 16:26:00,,0816.7,5.01,0.00,22.1,21.3,00.0,31.2,23.9,14.6,0000.0,0009.28,0004.91,0004.40
2022-02-16 16:27:00,,0816.4,5.00,0.00,22.1,21.4,00.0,31.1,23.9,14.7,0000.0,0009.78,0004.89,0004.39
2022-02-16 16:28:00,,0816.4,4.99,0.00,22.2,21.9,00.0,31.2,24.0,14.6,0000.0,0010.15,0004.85,0004.39
2022-02-16 16:29:00,,0816.6,4.99,0.00,22.3,22.6,00.0,31.2,24.2,14.6,0000.0,0010.17,0004.85,0004.40
2022-02-16 16:30:00,,0816.6,5.00,0.00,22.5,23.0,00.0,31.3,24.4,14.5,0000.0,0010.33,0004.83,0004.40
2022-02-16 16:31:00,,0816.5,5.01,0.00,22.5,22.8,00.0,31.3,24.5,14.5,0000.0,0009.90,0004.80,0004.38
2022-02-16 16:32:00,,0816.5,5.01,0.00,22.5,22.6,00.0,31.3,24.4,14.4,0000.0,0009.71,0004.79,0004.38
2022-02-16 16:33:00,,0816.6,5.01,0.00,22.5,22.4,00.0,31.3,24.4,14.4,0000.0,0009.59,0004.77,0004.38
2022-02-16 16:34:00,,0816.4,5.00,0.00,22.5,22.3,00.0,31.3,24.4,14.4,0000.0,0009.46,0004.78,0004.40
2022-02-16 16:35:00,,0816.5,5.00,0.00,22.5,22.2,00.0,31.3,24.3,14.4,0000.0,0009.38,0004.76,0004.40
2022-02-16 16:36:00,,0816.4,4.99,0.00,22.5,22.1,00.0,31.3,24.3,14.4,0000.0,0009.46,0004.81,0004.41
2022-02-16 16:37:00,,0816.4,5.00,0.00,22.5,22.0,00.0,31.4,24.3,14.4,0000.0,0009.65,0004.88,0004.43
2022-02-16 16:38:00,,0816.4,5.00,0.00,22.5,22.0,00.0,31.4,24.3,14.5,0000.0,0009.16,0004.91,0004.45
2022-02-16 16:39:00,,0816.4,5.00,0.00,22.5,21.9,00.0,31.4,24.3,14.5,0000.0,0008.55,0004.95,0004.47
2022-02-16 16:40:00,,0816.3,4.99,0.00,22.5,21.9,00.0,31.4,24.3,14.5,0000.0,0008.61,0004.99,0004.50
2022-02-16 16:41:00,,0816.3,5.01,0.00,22.5,21.8,00.0,31.4,24.2,14.5,0000.0,0008.28,0005.03,0004.52
2022-02-16 16:42:00,,0816.2,4.99,0.00,22.4,21.7,00.0,31.4,24.2,14.6,0000.0,0008.26,0005.06,0004.53
2022-02-16 16:43:00,,0816.2,5.02,0.00,22.4,21.7,00.0,31.4,24.1,14.6,0000.0,0008.15,0005.07,0004.55
2022-02-16 16:44:00,,0816.2,4.99,0.00,22.4,21.7,00.0,31.4,24.1,14.6,0000.0,0008.11,0005.09,0004.56
2022-02-16 16:45:00,,0816.2,4.99,0.00,22.4,21.6,00.0,31.4,24.1,14.6,0000.0,0008.28,0005.12,0004.57
2022-02-16 16:46:00,,0816.2,5.02,0.00,22.3,21.6,00.0,31.4,24.0,14.7,0000.0,0008.66,0005.19,0004.59
2022-02-16 16:47:00,,0816.2,5.00,0.00,22.3,21.6,00.0,31.3,24.0,14.8,0000.0,0008.63,0005.21,0004.61
2022-02-16 16:48:00,,0816.2,4.99,0.00,22.3,21.5,00.0,31.3,24.0,14.9,0000.0,0008.58,0005.19,0004.62
2022-02-16 16:49:00,,0816.2,5.02,0.00,22.3,21.5,00.0,31.3,24.0,14.8,0000.0,0008.62,0005.20,0004.63
2022-02-16 16:50:00,,0816.3,4.98,0.00,22.3,21.5,00.0,31.3,24.0,14.8,0000.0,0008.64,0005.22,0004.64
2022-02-16 16:51:00,,0816.3,5.01,0.00,22.2,21.5,00.0,31.3,24.0,14.9,0000.0,0008.62,0005.23,0004.65
2022-02-16 16:52:00,,0816.3,4.99,0.00,22.2,21.4,00.0,31.3,23.9,14.9,0000.0,0008.60,0005.23,0004.67
2022-02-16 16:53:00,,0816.3,5.00,0.00,22.2,21.6,00.0,31.3,24.0,14.9,0000.0,0008.62,0005.27,0004.70
2022-02-16 16:54:00,,0816.2,5.01,0.00,22.3,22.3,00.0,31.3,24.2,14.7,0000.0,0008.71,0005.32,0004.72
2022-02-16 16:55:00,,0816.3,4.99,0.00,22.5,23.1,00.0,31.4,24.5,14.6,0000.0,0008.76,0005.36,0004.76
2022-02-16 16:56:00,,0816.2,5.02,0.00,22.6,23.1,00.0,31.4,24.6,14.5,0000.0,0008.71,0005.39,0004.79
2022-02-16 16:57:00,,0816.2,4.98,0.00,22.6,22.9,00.0,31.4,24.6,14.4,0000.0,0008.76,0005.43,0004.83
2022-02-16 16:58:00,,0816.3,5.00,0.00,22.6,22.7,00.0,31.4,24.5,14.4,0000.0,0008.73,0005.42,0004.85
2022-02-16 16:59:00,,0816.2,5.00,0.00,22.6,22.5,00.0,31.5,24.4,14.4,0000.0,0009.10,0005.40,0004.86
